Location: Hylvaty SDH
(49.9612°N, 16.4057°E)
Time: 20:26:30
(UTC+02:00)

Transit 4A - Pass Details

Date: 15 August 2020
Orbit: 862 x 982 km, 66.8° (Epoch: 28 September)

Event Time Altitude Azimuth Distance (km) Brightness Sun altitude
Rises 09:59:21 0° 227° (SW) 3,502 10.8 38.8°
Reaches altitude 10° 10:01:51 10° 231° (SW) 2,582 10.1 39.1°
Maximum altitude 10:07:48 62° 312° (NW) 1,039 8.4 39.9°
Drops below altitude 10° 10:13:59 10° 33° (NNE) 2,679 10.4 40.8°
Sets 10:16:37 0° 37° (NE) 3,644 11.0 41.1°
